Flag for Germany Weather past 2 weeks in Kassel, Hesse, Germany

Now
63 °F

Rain showers. Passing clouds.


Feels Like: 63 °F
Forecast: 51 / 86 °F
Wind: 6 mph from Northwest

Location: Fritzlar Airport

Current Time: Jul 6, 2015 at 2:12:41 AM

Latest Report: Jul 6, 2015 at 1:20 AM


Visibility: 5 mi

Pressure: 30.07 "Hg

Humidity: 94%

Dew point: 61 °F

Location of KasselLocation

Historic Weather in Kassel — Graph

°F

Kassel temperature yesterday

Maximum temperature yesterday: 91 °F (at 4:20 PM)
Minimum temperature yesterday: 66 °F (at 9:20 PM)
Average temperature yesterday: 78 °F

Past Weeks' High & Low Weather Summary

 TemperatureHumidityPressure
High97 °F (Jul 4, 2:20 PM)100% (Jun 22, 2:20 AM)30.27 "Hg (Jun 22, 2:20 AM)
Low45 °F (Jun 25, 3:20 AM)28% (Jul 4, 3:20 PM)29.65 "Hg (Jun 22, 11:20 PM)
Average67 °F69%30.08 "Hg
* Reported Jun 21 12:20 AM — Jul 6 12:20 AM, Kassel, Weather by CustomWeather, © 2015

Note: Actual official high and low records may vary slightly from our data, if they occured in-between our weather recording intervals... More about our weather records

Advertising

Kassel weather history for previous 24 hours

 ConditionsComfort  
Time TempWeatherWind HumidityBarometerVisibility
12:20 AM
Mon, Jul 6
66 °FThunderstorms. Partly cloudy.8 mph83%30.04 "HgN/A
11:48 PM
Sun, Jul 5
66 °FThundershowers. Partly cloudy.13 mph88%30.04 "HgN/A
11:20 PM68 °FSprinkles. Partly cloudy.5 mph88%29.95 "HgN/A
10:20 PM66 °FBroken clouds.3 mph88%29.98 "HgN/A
9:20 PM66 °FBroken clouds.6 mph83%29.92 "HgN/A
8:20 PM70 °FBroken clouds.13 mph78%29.92 "HgN/A
7:20 PM73 °FPartly sunny.7 mph89%29.89 "HgN/A
6:20 PM73 °FStrong thunderstorms. Broken clouds.5 mph89%29.89 "HgN/A
5:20 PM84 °FThunderstorms. Broken clouds.9 mph66%29.86 "HgN/A
5:01 PM88 °FThunderstorms. Broken clouds.7 mph52%29.89 "HgN/A
4:58 PM90 °FThunderstorms. Broken clouds.7 mph46%29.89 "HgN/A
4:20 PM91 °FPassing clouds.7 mph52%29.89 "HgN/A
3:20 PM90 °FPassing clouds.9 mph55%29.95 "HgN/A
2:20 PM86 °FThundershowers. Scattered clouds.8 mph62%29.95 "HgN/A
2:00 PM88 °FThundershowers. Scattered clouds.12 mph55%29.98 "HgN/A
1:20 PM90 °FScattered clouds.7 mph49%30.01 "HgN/A
12:20 PM88 °FScattered clouds.6 mph55%30.01 "HgN/A
11:20 AM84 °FScattered clouds.5 mph62%30.04 "HgN/A
10:20 AM84 °FScattered clouds.3 mph66%30.04 "HgN/A
9:20 AM81 °FPassing clouds.3 mph70%30.07 "HgN/A
8:20 AM79 °FPassing clouds.1 mph74%30.07 "HgN/A
7:20 AM73 °FPassing clouds.3 mph83%30.07 "HgN/A
6:20 AM70 °FPassing clouds.3 mph88%30.07 "HgN/A
5:20 AM72 °FPassing clouds.5 mph83%30.09 "HgN/A
4:20 AM72 °FPassing clouds.2 mph83%30.09 "HgN/A
3:20 AM73 °FPassing clouds.1 mph83%30.09 "HgN/A
2:20 AM73 °FPassing clouds.7 mph78%30.09 "HgN/A
Weather by CustomWeather, © 2015

See weather overviewHow to use our weather pages